Regional Weather Roundup
Issued by NWS

Home | Current Version | Previous Version | Text Only | Print | Product List | Glossary Off
Versions: 1 2 3 4 5 6 7 8 9 10 11 12 13 14 15 16 17 18 19 20 21 22 23 24 25 26 27 28 29 30 31 32 33 34 35 36 37 38 39 40 41 42 43 44 45 46 47 48 49 50

000
ASUS43 KLMK 101002
RWRKY
KENTUCKY REGIONAL WEATHER ROUNDUP
NATIONAL WEATHER SERVICE LOUISVILLE KY
500 AM EST SUN DEC 10 2017

NOTE "FAIR" INDICATES FEW OR NO CLOUDS BELOW 12,000 FEET
WITH NO SIGNIFICANT WEATHER AND/OR OBSTRUCTIONS TO VISIBILITY.

KYZ001>023-026-027-061>063-070>075-101100-
WESTERN AND SOUTH CENTRAL KENTUCKY

CITY           SKY/WX    TMP DP  RH WIND       PRES   REMARKS
PADUCAH        CLEAR     20  14  77 SW5       30.23S WCI  13
HENDERSON      CLEAR     22  17  81 SW5       30.22F WCI  16
OWENSBORO      NOT AVBL
HOPKINSVILLE   CLEAR     23  15  71 SW5       30.23R WCI  17
BOWLING GREEN  CLEAR     23  16  74 SW3       30.22F
GLASGOW        NOT AVBL
$$

KYZ024-025-028>034-038-045-046-053-101100-
NORTH CENTRAL KENTUCKY

CITY           SKY/WX    TMP DP  RH WIND       PRES   REMARKS
LOUISVILLE/SDF CLEAR     25  16  68 W8        30.18S WCI  16
LOUISVILLE/LOU CLEAR     23  16  74 W5        30.18F WCI  17
FORT KNOX      CLEAR     20  14  77 SW3       30.16S
$$

KYZ035>037-039>044-047>052-055>060-089>105-101100-
NORTHEAST KENTUCKY

CITY           SKY/WX    TMP DP  RH WIND       PRES   REMARKS
LEXINGTON      CLEAR     21  14  74 SW7       30.15S WCI  12
COVINGTON      CLEAR     21  16  81 SW5       30.10S WCI  15
FRANKFORT      CLEAR     22  13  68 W6        30.14S WCI  14
$$

KYZ054-064>069-076>088-106>120-101100-
SOUTHEAST KENTUCKY

CITY           SKY/WX    TMP DP  RH WIND       PRES   REMARKS
JACKSON        CLOUDY    26  18  71 W6        30.12S WCI  19
LONDON         PTCLDY    24  16  71 W6        30.16S WCI  17
SOMERSET       NOT AVBL
MIDDLESBORO    CLOUDY    29  17  61 NW3       30.17F
MONTICELLO     SUNNY     18  14  84 NE8       30.21S WCI   8
$$





USA.gov is the U.S. government's official web portal to all federal, state and local government web resources and services.